User: anonymous   Login
Location: Unspecified
(0.0000°N, 0.0000°E)
Time: 14:42:35
(UTC+00:00)
Language:

A-11 Canister half - Orbit

View from above orbital plane
View from above orbital plane
View from above satellite
View from above satellite

Ground track
Ground track

The orbit data is extracted from the following two-line orbital elements,

1 00053U 60009E   21212.92443968 -.00000044  00000-0  39546-3 0  9995
2 00053  47.2778  76.2365 0097121 211.1079 148.3935 12.17256588718447
Epoch (UTC): 31 July 2021 22:11:11
Eccentricity: 0.0097121
inclination: 47.2778°
perigee height: 1527 km
apogee height: 1682 km
right ascension of ascending node: 76.2365°
argument of perigee: 211.1079°
revolutions per day: 12.17256588
mean anomaly at epoch: 148.3935°
orbit number at epoch: 71844

The dashed part of the orbit path shows where the satellite is in the earth's shadow,  

DLR